Date String (YYYY-MM-DD hh:mm:ss) UTC,Instrument flags,absolute air pressure of the measurement (hPa),sample flow rate (lpm),inlet stack bypass flow (lpm),air temperature of the measurement (°C),ambient temperature measured by the external sensor (°C),aerosol sample conditioner tube jacket temperature (°C),OPC LED temperature (°C),internal box temperature (°C),relative humidity of the measurement (%),span deviation,mass concentration of particles derived from Lorenz-Mie calculation of OPC scattering (μg/m³),mass concentration of particles derived from Lorenz-Mie calculation of OPC scattering (μg/m³),mass concentration of particles derived from Lorenz-Mie calculation of OPC scattering (μg/m³)
DateTimeUTC,F1_M11,P_M11,Q1_M11,Q2_M11,T1_M11,T2_M11,T3_M11,T4_M11,T5_M11,U1_M11,ZSPAN_M11,X0_M11,X2_M11,X1_M11
2024-04-13 14:00:00,SystemResetWarning,0827.1,5.00,000.00,026.6,025.8,000.0,035.0,028.4,011.4,0000.0,0013.41,0004.08,0002.24
2024-04-13 14:01:00,SystemResetWarning,0827.1,5.01,000.00,026.6,025.8,000.0,035.1,028.4,011.6,0000.0,0013.97,0004.05,0002.23
2024-04-13 14:02:00,SystemResetWarning,0827.1,5.00,000.00,026.6,025.8,000.0,035.1,028.4,011.5,0000.0,0015.35,0004.04,0002.24
2024-04-13 14:03:00,SystemResetWarning,0827.1,4.99,000.00,026.6,025.8,000.0,035.1,028.4,011.4,0000.0,0015.88,0004.04,0002.26
2024-04-13 14:04:00,SystemResetWarning,0827.1,4.99,000.00,026.6,025.8,000.0,035.1,028.4,011.9,0000.0,0015.42,0004.02,0002.26
2024-04-13 14:05:00,SystemResetWarning,0827.1,5.00,000.00,026.6,025.8,000.0,035.1,028.4,012.0,0000.0,0014.09,0003.92,0002.24
2024-04-13 14:06:00,SystemResetWarning,0827.1,5.01,000.00,026.6,025.8,000.0,035.1,028.4,012.2,0000.0,0013.78,0003.86,0002.23
2024-04-13 14:07:00,SystemResetWarning,0827.0,5.00,000.00,026.6,025.8,000.0,035.1,028.4,011.6,0000.0,0014.52,0003.88,0002.24
2024-04-13 14:08:00,SystemResetWarning,0827.0,4.99,000.00,026.6,025.8,000.0,035.1,028.4,011.3,0000.0,0014.48,0003.87,0002.24
2024-04-13 14:09:00,SystemResetWarning,0827.1,5.00,000.00,026.6,025.8,000.0,035.1,028.5,011.1,0000.0,0014.64,0003.89,0002.25
2024-04-13 14:10:00,SystemResetWarning,0827.2,5.00,000.00,026.6,025.9,000.0,035.1,028.5,011.2,0000.0,0015.66,0003.97,0002.26
2024-04-13 14:11:00,SystemResetWarning,0827.1,5.01,000.00,026.6,025.9,000.0,035.1,028.5,011.2,0000.0,0016.16,0003.95,0002.25
2024-04-13 14:12:00,SystemResetWarning,0827.2,5.01,000.00,026.7,025.8,000.0,035.1,028.5,011.9,0000.0,0016.43,0003.94,0002.26
2024-04-13 14:13:00,SystemResetWarning,0827.2,5.00,000.00,026.7,025.8,000.0,035.1,028.5,012.3,0000.0,0015.02,0003.92,0002.25
2024-04-13 14:14:00,SystemResetWarning,0827.2,4.99,000.00,026.7,025.9,000.0,035.1,028.5,012.8,0000.0,0014.00,0003.90,0002.23
2024-04-13 14:15:00,SystemResetWarning,0827.2,5.00,000.00,026.7,025.9,000.0,035.1,028.5,012.3,0000.0,0013.96,0003.90,0002.24
2024-04-13 14:16:00,SystemResetWarning,0827.2,4.99,000.00,026.7,025.9,000.0,035.1,028.5,012.0,0000.0,0014.15,0003.92,0002.23
2024-04-13 14:17:00,SystemResetWarning,0827.2,4.99,000.00,026.7,025.9,000.0,035.1,028.5,011.8,0000.0,0013.87,0003.96,0002.24
2024-04-13 14:18:00,SystemResetWarning,0827.2,5.00,000.00,026.7,025.9,000.0,035.1,028.5,012.1,0000.0,0012.49,0003.92,0002.23
2024-04-13 14:19:00,SystemResetWarning,0827.1,5.00,000.00,026.7,025.9,000.0,035.1,028.5,012.1,0000.0,0013.15,0003.91,0002.22
2024-04-13 14:20:00,SystemResetWarning,0827.1,5.00,000.00,026.7,025.9,000.0,035.1,028.5,012.6,0000.0,0013.25,0003.85,0002.22
2024-04-13 14:21:00,SystemResetWarning,0827.1,5.00,000.00,026.7,025.9,000.0,035.1,028.5,012.8,0000.0,0013.68,0003.82,0002.21
2024-04-13 14:22:00,SystemResetWarning,0827.1,5.00,000.00,026.7,025.9,000.0,035.1,028.5,012.7,0000.0,0013.08,0003.77,0002.21
2024-04-13 14:23:00,SystemResetWarning,0827.0,5.01,000.00,026.7,025.9,000.0,035.2,028.5,011.9,0000.0,0012.50,0003.81,0002.21
2024-04-13 14:24:00,SystemResetWarning,0827.1,5.00,000.00,026.7,025.9,000.0,035.2,028.5,012.3,0000.0,0012.46,0003.86,0002.20
2024-04-13 14:25:00,SystemResetWarning,0827.1,5.00,000.00,026.7,025.9,000.0,035.2,028.5,013.2,0000.0,0012.47,0003.93,0002.20
2024-04-13 14:26:00,SystemResetWarning,0827.2,5.00,000.00,026.7,025.9,000.0,035.2,028.6,012.6,0000.0,0012.75,0003.97,0002.22
2024-04-13 14:27:00,SystemResetWarning,0827.2,4.99,000.00,026.8,025.9,000.0,035.2,028.6,012.2,0000.0,0012.50,0003.96,0002.22
2024-04-13 14:28:00,SystemResetWarning,0827.2,5.00,000.00,026.8,026.0,000.0,035.2,028.6,011.9,0000.0,0012.94,0004.00,0002.23
2024-04-13 14:29:00,SystemResetWarning,0827.2,5.00,000.00,026.8,026.0,000.0,035.2,028.6,011.9,0000.0,0013.21,0004.05,0002.24
2024-04-13 14:30:00,SystemResetWarning,0827.3,5.00,000.00,026.8,026.0,000.0,035.2,028.6,012.5,0000.0,0012.84,0004.09,0002.26
2024-04-13 14:31:00,SystemResetWarning,0827.4,5.00,000.00,026.8,026.0,000.0,035.2,028.6,012.7,0000.0,0012.40,0004.09,0002.27
2024-04-13 14:32:00,SystemResetWarning,0827.4,5.01,000.00,026.8,026.0,000.0,035.2,028.6,012.1,0000.0,0012.60,0004.12,0002.28
2024-04-13 14:33:00,SystemResetWarning,0827.4,4.99,000.00,026.8,026.0,000.0,035.2,028.6,011.8,0000.0,0013.18,0004.19,0002.28
2024-04-13 14:34:00,SystemResetWarning,0827.4,4.99,000.00,026.8,026.0,000.0,035.2,028.6,012.2,0000.0,0014.28,0004.23,0002.29
2024-04-13 14:35:00,SystemResetWarning,0827.4,5.00,000.00,026.8,026.0,000.0,035.2,028.6,012.3,0000.0,0014.47,0004.26,0002.32
2024-04-13 14:36:00,SystemResetWarning,0827.4,5.01,000.00,026.8,026.0,000.0,035.2,028.6,012.2,0000.0,0014.47,0004.21,0002.32
2024-04-13 14:37:00,SystemResetWarning,0827.4,5.01,000.00,026.8,026.1,000.0,035.2,028.6,012.1,0000.0,0014.46,0004.16,0002.33
2024-04-13 14:38:00,SystemResetWarning,0827.4,5.00,000.00,026.8,026.1,000.0,035.2,028.7,012.3,0000.0,0014.75,0004.20,0002.34
2024-04-13 14:39:00,SystemResetWarning,0827.3,4.98,000.00,026.8,026.1,000.0,035.3,028.7,011.7,0000.0,0014.47,0004.20,0002.35
2024-04-13 14:40:00,SystemResetWarning,0827.4,5.00,000.00,026.9,026.1,000.0,035.3,028.7,011.5,0000.0,0015.04,0004.20,0002.36
2024-04-13 14:41:00,SystemResetWarning,0827.3,5.01,000.00,026.9,026.1,000.0,035.3,028.7,011.2,0000.0,0015.50,0004.20,0002.36
2024-04-13 14:42:00,SystemResetWarning,0827.4,5.01,000.00,026.9,026.1,000.0,035.3,028.7,011.2,0000.0,0016.24,0004.21,0002.37
2024-04-13 14:43:00,SystemResetWarning,0827.4,4.99,000.00,026.9,026.1,000.0,035.3,028.7,011.3,0000.0,0015.35,0004.18,0002.37
2024-04-13 14:44:00,SystemResetWarning,0827.3,4.99,000.00,026.9,026.1,000.0,035.3,028.7,011.8,0000.0,0013.94,0004.16,0002.38
2024-04-13 14:45:00,SystemResetWarning,0827.3,5.01,000.00,026.9,026.1,000.0,035.3,028.7,011.7,0000.0,0014.03,0004.13,0002.39
2024-04-13 14:46:00,SystemResetWarning,0827.3,5.01,000.00,026.9,026.1,000.0,035.3,028.7,011.7,0000.0,0014.21,0004.09,0002.39
2024-04-13 14:47:00,SystemResetWarning,0827.3,4.99,000.00,026.9,026.1,000.0,035.3,028.7,012.0,0000.0,0014.53,0004.15,0002.40
2024-04-13 14:48:00,SystemResetWarning,0827.4,4.99,000.00,026.9,026.2,000.0,035.3,028.8,011.9,0000.0,0014.87,0004.20,0002.39
2024-04-13 14:49:00,SystemResetWarning,0827.4,5.01,000.00,026.9,026.2,000.0,035.3,028.8,011.6,0000.0,0015.95,0004.20,0002.39
2024-04-13 14:50:00,SystemResetWarning,0827.4,5.01,000.00,027.0,026.2,000.0,035.3,028.8,011.5,0000.0,0016.96,0004.20,0002.40
2024-04-13 14:51:00,SystemResetWarning,0827.3,5.00,000.00,027.0,026.2,000.0,035.4,028.8,011.8,0000.0,0016.69,0004.16,0002.39
2024-04-13 14:52:00,SystemResetWarning,0827.4,5.01,000.00,027.0,026.2,000.0,035.4,028.8,012.5,0000.0,0015.85,0004.11,0002.38
2024-04-13 14:53:00,SystemResetWarning,0827.3,5.00,000.00,027.0,026.2,000.0,035.4,028.8,012.1,0000.0,0015.03,0004.05,0002.37
2024-04-13 14:54:00,SystemResetWarning,0827.3,4.99,000.00,027.0,026.2,000.0,035.4,028.8,011.7,0000.0,0015.28,0004.07,0002.38
2024-04-13 14:55:00,SystemResetWarning,0827.3,4.99,000.00,026.9,025.4,000.0,035.4,028.3,011.7,0000.0,0015.33,0004.07,0002.38
2024-04-13 14:56:00,SystemResetWarning,0827.2,5.01,000.00,026.5,023.3,000.0,035.4,027.1,013.2,0000.0,0015.22,0004.09,0002.36
2024-04-13 14:57:00,SystemResetWarning,0827.3,5.01,000.00,026.2,023.0,000.0,035.4,026.8,013.8,0000.0,0014.93,0004.09,0002.36
2024-04-13 14:58:00,SystemResetWarning,0827.3,4.99,000.00,026.0,023.3,000.0,035.2,027.0,013.5,0000.0,0014.72,0004.01,0002.33
2024-04-13 14:59:00,SystemResetWarning,0827.3,5.00,000.00,026.0,023.7,000.0,035.1,027.3,013.7,0000.0,0014.38,0003.96,0002.34
